Regional Weather Roundup
Issued by NWS Albany, NY

Home | Current Version | Previous Version | Text Only | Print | Product List | Glossary On
Versions: 1 2 3 4 5 6 7 8 9 10 11 12 13 14 15 16 17 18 19 20 21 22 23 24 25 26 27 28 29 30 31 32 33 34 35 36 37 38 39 40 41 42 43 44 45 46 47 48 49 50
000
ASUS41 KALY 011510
RWRALY

NEW YORK STATE HOURLY WEATHER ROUNDUP
NATIONAL WEATHER SERVICE ALBANY NY
1100 AM EDT WED APR 01 2015

NOTE: "FAIR" INDICATES FEW OR NO CLOUDS BELOW 12,000 FEET WITH NO
SIGNIFICANT WEATHER AND/OR NO OBSTRUCTIONS TO VISIBILITY.

NYZ032-033-038>043-046>054-057>066-NYZ062>081-011600-
EAST


CITY           SKY/WX    TMP DP  RH WIND       PRES   REMARKS
ALBANY         MOSUNNY   40   3  21 N9        30.06R WCI  34
GLENS FALLS    SUNNY     33  12  41 E8        30.07R WCI  26
POUGHKEEPSIE   SUNNY     41  13  31 N9        30.06S
NEWBURGH       MOSUNNY   36  27  69 W6        30.07R WCI  31
MONTGOMERY     SUNNY     38  23  55 E3        30.05R
WHITE PLAINS   MOSUNNY   37  15  40 NW7       30.05R WCI  32
ISLIP          MOSUNNY   42  12  29 NW14      30.04R
NEW YORK CITY  MOSUNNY   39  15  37 NW5       30.08S
CENTRAL PARK   MOSUNNY   38  14  37 NW8       30.11R WCI  32
$$

NYZ005>009-017-018-044>046-055-056-011600-
CENTRAL


CITY           SKY/WX    TMP DP  RH WIND       PRES   REMARKS
FULTON         SUNNY     32   7  35 NW8       30.15R WCI  25
SYRACUSE       MOSUNNY   35   8  32 N12       30.14R WCI  27
ROME           MOSUNNY   33   7  33 NW3       30.13R
ELMIRA         SUNNY     38  25  59 N10G17    30.12R WCI  31
BINGHAMTON     MOSUNNY   32  23  69 NW9       30.05R WCI  24
MONTICELLO     SUNNY     32  19  59 W7        30.03S WCI  26
$$

NYZ026>034-041>043-011600-
NORTH


CITY           SKY/WX    TMP DP  RH WIND       PRES   REMARKS
WATERTOWN      SUNNY     34  10  37 N8        30.16R WCI  27
FORT DRUM      NOT AVBL
MASSENA        SUNNY     31   6  35 VRB7      30.16R WCI  24
SARANAC LAKE   FLURRIES  26  -1  31 N8        30.00R WCI  18
PLATTSBURGH    SUNNY     30   7  37 N8        30.10R WCI  22
$$

NYZ001>004-010>016-019>021-011600-
WEST


CITY           SKY/WX    TMP DP  RH WIND       PRES   REMARKS
NIAGARA FALLS  MOSUNNY   36  17  46 NE8       30.16R WCI  30
BUFFALO        MOSUNNY   35  19  52 CALM      30.16R
DUNKIRK        CLOUDY    34  24  67 CALM      30.16R
JAMESTOWN      CLOUDY    28  25  86 CALM      30.12R
WELLSVILLE     SUNNY     33  19  56 VRB5      30.08R WCI  29
ROCHESTER      MOSUNNY   37  12  35 N8        30.16R WCI  31
PENN YAN       SUNNY     36  14  40 N7        30.13R WCI  30
$$

             KEY
       WCI = WIND CHILL INDEX
       VSB = VISIBILITY
       HX  = HEAT INDEX
$$



USA.gov is the U.S. government's official web portal to all federal, state and local government web resources and services.